Weather History for LEPA - April, 2013

Change the Weather History Date:

Thursday, April 11, 2013

  Actual Average Record
Temperature  
Mean Temperature 58 °F -  
Max Temperature 66 °F 69 °F 73 °F (2011)
Min Temperature 50 °F 49 °F 39 °F (1997)
Degree Days  
Heating Degree Days 7    
Growing Degree Days 8 (Base 50)    
Moisture  
Dew Point 56 °F    
Average Humidity 87    
Maximum Humidity 94    
Minimum Humidity 65    
Precipitation  
Precipitation 0.00 in 0.05 in - ()
Sea Level Pressure  
Sea Level Pressure 29.96 in    
Wind  
Wind Speed 5 mph ()    
Max Wind Speed 14 mph    
Max Gust Speed -    
Visibility 5.8 miles    
Events      
Averages and records for this station are not official NWS values.
T = Trace of Precipitation, MM = Missing Value Source: Averaged Metar Reports

Daily Weather History Graph

Daily Weather History Graph

Search for Another Location

Airport or City:

Trip Planner

Search our weather history database for the weather conditions in past years. The results will help you decide how hot, cold, wet, or windy it might be!

Date:

Astronomy

Apr. 11, 2013 Rise Set
Actual Time 7:17 AM CEST 8:23 PM CEST
Civil Twilight 6:50 AM CEST 8:50 PM CEST
Nautical Twilight 6:17 AM CEST 9:23 PM CEST
Astronomical Twilight 5:43 AM CEST 9:58 PM CEST
Moon 7:40 AM CEST (4/11) 9:42 PM CEST (4/11)
Length of Visible Light 14h 00m
Length of Day
13h 05m
New Moon, 1% of the Moon is Illuminated
Apr 11
New Moon
Apr 18
First Quarter
Apr 25
Full
May 2
Last Quarter
May 10
New

Hourly Weather History & Observations

Time (CEST) Temp. Dew Point Humidity Pressure Visibility Wind Dir Wind Speed Gust Speed Precip Events Conditions
12:00 AM 59.0 °F 55.4 °F 88% 30.06 in - South 3.5 mph - N/A   Clear
12:30 AM 57.2 °F 55.4 °F 94% 30.06 in - South 3.5 mph - N/A   Clear
1:00 AM 59.0 °F 55.4 °F 88% 30.04 in - South 5.8 mph - N/A   Clear
1:30 AM 57.2 °F 55.4 °F 94% 30.04 in - SSE 4.6 mph - N/A   Clear
2:00 AM 56 °F 51 °F 77% 30.05 in 16 mi SSE 5.8 mph - -  
2:00 AM 57.2 °F 55.4 °F 94% 30.04 in - SSE 3.5 mph - N/A   Clear
2:30 AM 57.2 °F 55.4 °F 94% 30.04 in - South 4.6 mph - N/A   Clear
3:00 AM 57.2 °F 55.4 °F 94% 30.01 in - SSE 4.6 mph - N/A   Clear
3:30 AM 57.2 °F 55.4 °F 94% 30.01 in - SSE 3.5 mph - N/A   Clear
4:00 AM 57.2 °F 53.6 °F 88% 30.01 in - South 1.2 mph - N/A   Clear
4:30 AM 55.4 °F 53.6 °F 94% 29.98 in 6.2 mi South 2.3 mph - N/A   Partly Cloudy
5:00 AM 53.6 °F 51.8 °F 94% 29.98 in 6.2 mi Calm Calm - N/A   Partly Cloudy
5:30 AM 53.6 °F 51.8 °F 94% 29.98 in 6.2 mi Calm Calm - N/A   Partly Cloudy
6:00 AM 51.8 °F 50.0 °F 94% 29.98 in 6.2 mi South 1.2 mph - N/A   Partly Cloudy
6:30 AM 53.6 °F 51.8 °F 94% 29.98 in 6.2 mi Calm Calm - N/A   Partly Cloudy
7:00 AM 53.6 °F 51.8 °F 94% 29.98 in 6.2 mi South 8.1 mph - N/A   Partly Cloudy
7:30 AM 53.6 °F 51.8 °F 94% 29.98 in 6.2 mi SSE 3.5 mph - N/A   Partly Cloudy
8:00 AM 53 °F 51 °F 92% 29.99 in 16 mi SSE 1.2 mph - -   Scattered Clouds
8:00 AM 55.4 °F 53.6 °F 94% 29.98 in 6.2 mi South 6.9 mph - N/A   Partly Cloudy
8:30 AM 60.8 °F 59.0 °F 94% 29.98 in - South 3.5 mph - N/A   Clear
9:00 AM 60.8 °F 57.2 °F 88% 29.98 in - SSW 3.5 mph - N/A   Clear
9:30 AM 62.6 °F 57.2 °F 82% 29.98 in - SSW 3.5 mph - N/A   Clear
10:00 AM 62.6 °F 59.0 °F 88% 29.98 in 6.2 mi SW 5.8 mph - N/A   Partly Cloudy
10:30 AM 62.6 °F 59.0 °F 88% 29.98 in 6.2 mi SW 9.2 mph - N/A   Partly Cloudy
11:00 AM 64.4 °F 59.0 °F 83% 29.98 in 6.2 mi SW 10.4 mph - N/A   Partly Cloudy
11:30 AM 64.4 °F 59.0 °F 83% 29.98 in 6.2 mi SW 11.5 mph - N/A   Partly Cloudy
12:00 PM 62.6 °F 59.0 °F 88% 29.98 in 6.2 mi SW 13.8 mph - N/A   Partly Cloudy
12:30 PM 62.6 °F 59.0 °F 88% 29.98 in 6.2 mi SW 12.7 mph - N/A   Scattered Clouds
1:00 PM 62.6 °F 59.0 °F 88% 29.98 in 6.2 mi SW 11.5 mph - N/A   Scattered Clouds
1:30 PM 62.6 °F 57.2 °F 82% 29.98 in 6.2 mi SW 8.1 mph - N/A   Mostly Cloudy
2:00 PM 64 °F 55 °F 65% 29.96 in 11 mi SW 10.4 mph - -   Mostly Cloudy
2:00 PM 62.6 °F 59.0 °F 88% 29.95 in 6.2 mi SW 9.2 mph - N/A   Mostly Cloudy
2:30 PM 62.6 °F 57.2 °F 82% 29.95 in 6.2 mi SW 11.5 mph - N/A   Mostly Cloudy
3:00 PM 64.4 °F 57.2 °F 77% 29.95 in 6.2 mi SW 11.5 mph - N/A   Mostly Cloudy
3:30 PM 62.6 °F 57.2 °F 82% 29.92 in 6.2 mi SW 12.7 mph - N/A   Mostly Cloudy
4:00 PM 62.6 °F 57.2 °F 82% 29.92 in 3.7 mi SW 12.7 mph - N/A   Mostly Cloudy
4:07 PM 62.6 °F 59.0 °F 88% 29.92 in 2.5 mi SW 12.7 mph - N/A   Mostly Cloudy
4:30 PM 62.6 °F 59.0 °F 88% 29.89 in 2.5 mi SW 12.7 mph - N/A   Mostly Cloudy
5:00 PM 62.6 °F 59.0 °F 88% 29.89 in 1.9 mi SW 12.7 mph - N/A   Mostly Cloudy
5:30 PM 62.6 °F 59.0 °F 88% 29.89 in 3.1 mi SW 12.7 mph - N/A   Mostly Cloudy
6:00 PM 62.6 °F 57.2 °F 82% 29.89 in 3.1 mi SW 10.4 mph - N/A   Mostly Cloudy
6:16 PM 62.6 °F 57.2 °F 82% 29.89 in 3.7 mi SW 9.2 mph - N/A   Mostly Cloudy
6:30 PM 62.6 °F 57.2 °F 82% 29.89 in 3.7 mi SW 9.2 mph - N/A   Mostly Cloudy
7:00 PM 62.6 °F 57.2 °F 82% 29.86 in 3.7 mi SW 9.2 mph - N/A   Mostly Cloudy
7:30 PM 62.6 °F 57.2 °F 82% 29.86 in 4.3 mi SW 6.9 mph - N/A   Mostly Cloudy
8:00 PM 60 °F 54 °F 76% 29.89 in 4 mi SW 13.8 mph - -   Mist
8:00 PM 60.8 °F 57.2 °F 88% 29.86 in 4.3 mi SW 6.9 mph - N/A   Mostly Cloudy
8:30 PM 60.8 °F 57.2 °F 88% 29.89 in 5.0 mi SW 5.8 mph - N/A   Mostly Cloudy
9:00 PM 60.8 °F 57.2 °F 88% 29.89 in 5.0 mi SW 4.6 mph - N/A   Scattered Clouds
9:30 PM 60.8 °F 57.2 °F 88% 29.89 in 6.2 mi SW 3.5 mph - N/A   Scattered Clouds
10:00 PM 60.8 °F 57.2 °F 88% 29.89 in 5.0 mi SSW 4.6 mph - N/A   Partly Cloudy
10:30 PM 60.8 °F 57.2 °F 88% 29.89 in 5.0 mi SSW 4.6 mph - N/A   Partly Cloudy
11:00 PM 60.8 °F 57.2 °F 88% 29.89 in 5.0 mi SW 3.5 mph - N/A   Partly Cloudy
11:30 PM 60.8 °F 57.2 °F 88% 29.89 in 5.0 mi SSW 4.6 mph - N/A   Partly Cloudy